| time (UTC) | temp F | wind direction | speed MPH | gust MPH | rain 1hr in | rain 24hr in | rain mn in | humidity % | barometer mb |
| 20260510140148 | 46 | 122 | 0.0 | 3.0 | 0.00 | 0.00 | 0.00 | 92 | 1017.7 |
| 20260510134532 | 45 | 126 | 1.0 | 4.0 | 0.00 | 0.00 | 0.00 | 93 | 1017.9 |
| 20260510131530 | 41 | 138 | 2.0 | 4.0 | 0.00 | 0.00 | 0.00 | 93 | 1017.7 |
| 20260510130029 | 41 | 248 | 1.0 | 4.0 | 0.00 | 0.00 | 0.00 | 93 | 1017.8 |
| 20260510123032 | 41 | 145 | 2.0 | 5.0 | 0.00 | 0.00 | 0.00 | 94 | 1018.0 |
| 20260510114608 | 40 | 139 | 1.0 | 4.0 | 0.00 | 0.00 | 0.00 | 93 | 1017.9 |
| 20260510113103 | 40 | 112 | 0.0 | 2.0 | 0.00 | 0.00 | 0.00 | 93 | 1017.8 |
| 20260510110146 | 40 | 182 | 1.0 | 3.0 | 0.00 | 0.00 | 0.00 | 93 | 1017.6 |
| 20260510101529 | 40 | 172 | 0.0 | 3.0 | 0.00 | 0.00 | 0.00 | 92 | 1017.9 |
| 20260510094531 | 41 | 201 | 0.0 | 3.0 | 0.00 | 0.00 | 0.00 | 92 | 1017.7 |
| 20260510093030 | 41 | 159 | 1.0 | 3.0 | 0.00 | 0.00 | 0.00 | 91 | 1017.8 |
| 20260510091530 | 41 | 157 | 1.0 | 4.0 | 0.00 | 0.00 | 0.00 | 91 | 1018.0 |
| 20260510090031 | 42 | 157 | 1.0 | 2.0 | 0.00 | 0.00 | 0.00 | 91 | 1018.1 |
| 20260510084533 | 42 | 157 | 1.0 | 3.0 | 0.00 | 0.00 | 0.00 | 90 | 1018.2 |
| 20260510083030 | 43 | 157 | 0.0 | 2.0 | 0.00 | 0.00 | 0.00 | 90 | 1018.3 |
| 20260510081529 | 43 | 157 | 0.0 | 1.0 | 0.00 | 0.00 | 0.00 | 90 | 1018.4 |
| 20260510074532 | 44 | 157 | 0.0 | 3.0 | 0.00 | 0.00 | 0.00 | 89 | 1018.6 |
| 20260510073030 | 44 | 157 | 1.0 | 2.0 | 0.00 | 0.00 | 0.00 | 88 | 1018.6 |
| 20260510071531 | 44 | 196 | 0.0 | 2.0 | 0.00 | 0.00 | 0.00 | 88 | 1018.6 |
| 20260510064529 | 45 | 173 | 0.0 | 2.0 | 0.00 | 0.00 | 0.00 | 87 | 1018.6 |
| 20260510063032 | 46 | 157 | 1.0 | 2.0 | 0.00 | 0.00 | 0.00 | 86 | 1018.4 |
| 20260510061529 | 46 | 153 | 0.0 | 4.0 | 0.00 | 0.00 | 0.00 | 86 | 1018.4 |
| 20260510060031 | 47 | 157 | 0.0 | 0.0 | 0.00 | 0.00 | 0.00 | 85 | 1018.4 |
| 20260510054528 | 47 | 149 | 1.0 | 3.0 | 0.00 | 0.00 | 0.00 | 84 | 1018.3 |
| 20260510053106 | 48 | 132 | 2.0 | 4.0 | 0.00 | 0.00 | 0.00 | 82 | 1018.3 |
| 20260510051529 | 50 | 139 | 2.0 | 4.0 | 0.00 | 0.00 | 0.00 | 81 | 1018.2 |
| 20260510050030 | 51 | 149 | 1.0 | 4.0 | 0.00 | 0.00 | 0.00 | 78 | 1018.1 |
| 20260510043032 | 53 | 150 | 1.0 | 3.0 | 0.00 | 0.00 | 0.00 | 77 | 1018.0 |
| 20260510040030 | 56 | 157 | 3.0 | 5.0 | 0.00 | 0.00 | 0.00 | 72 | 1017.7 |
| 20260510034531 | 59 | 157 | 0.0 | 1.0 | 0.00 | 0.00 | 0.00 | 68 | 1017.6 |
| 20260510033030 | 61 | 157 | 0.0 | 1.0 | 0.00 | 0.00 | 0.00 | 66 | 1017.5 |
| 20260510031531 | 63 | 157 | 0.0 | 2.0 | 0.00 | 0.00 | 0.00 | 64 | 1017.5 |
| 20260510024533 | 67 | 157 | 0.0 | 2.0 | 0.00 | 0.00 | 0.00 | 59 | 1017.6 |
| 20260510023028 | 68 | 185 | 1.0 | 3.0 | 0.00 | 0.00 | 0.00 | 56 | 1017.5 |
| 20260510020031 | 73 | 247 | 0.0 | 0.0 | 0.00 | 0.00 | 0.00 | 45 | 1017.5 |
| 20260510013029 | 74 | 247 | 1.0 | 2.0 | 0.00 | 0.00 | 0.00 | 38 | 1017.8 |
| 20260510011530 | 75 | 265 | 1.0 | 3.0 | 0.00 | 0.00 | 0.00 | 34 | 1017.9 |
| 20260510010030 | 76 | 287 | 3.0 | 7.0 | 0.00 | 0.00 | 0.00 | 32 | 1017.9 |
| 20260510004531 | 77 | 273 | 4.0 | 7.0 | 0.00 | 0.00 | 0.00 | 32 | 1017.9 |
| 20260510003028 | 77 | 293 | 4.0 | 8.0 | 0.00 | 0.00 | 0.00 | 34 | 1018.0 |
| 20260510001530 | 78 | 315 | 3.0 | 8.0 | 0.00 | 0.00 | 0.00 | 36 | 1018.0 |
| 20260510000032 | 78 | 353 | 3.0 | 8.0 | 0.00 | 0.00 | 0.00 | 36 | 1018.0 |
| 20260509234529 | 79 | 11 | 3.0 | 7.0 | 0.00 | 0.00 | 0.00 | 36 | 1018.3 |
| 20260509233108 | 79 | 12 | 3.0 | 7.0 | 0.00 | 0.00 | 0.00 | 36 | 1018.4 |
| 20260509231531 | 78 | 359 | 3.0 | 8.0 | 0.00 | 0.00 | 0.00 | 37 | 1018.7 |
| 20260509230030 | 78 | 5 | 3.0 | 7.0 | 0.00 | 0.00 | 0.00 | 38 | 1018.9 |
| 20260509224532 | 77 | 2 | 2.0 | 7.0 | 0.00 | 0.00 | 0.00 | 38 | 1019.2 |
| 20260509223032 | 76 | 23 | 4.0 | 8.0 | 0.00 | 0.00 | 0.00 | 40 | 1019.5 |
| 20260509221532 | 76 | 13 | 4.0 | 8.0 | 0.00 | 0.00 | 0.00 | 41 | 1019.7 |
| 20260509220032 | 75 | 17 | 3.0 | 10.0 | 0.00 | 0.00 | 0.00 | 43 | 1019.8 |
| 20260509214605 | 74 | 17 | 3.0 | 9.0 | 0.00 | 0.00 | 0.00 | 45 | 1020.0 |
| 20260509213029 | 72 | 354 | 4.0 | 10.0 | 0.00 | 0.00 | 0.00 | 47 | 1020.2 |
| 20260509211531 | 72 | 336 | 2.0 | 6.0 | 0.00 | 0.00 | 0.00 | 48 | 1020.3 |
| 20260509210111 | 0 | 0 | 0.0 | 0.0 | 0.00 | 0.00 | 0.00 | 100 | |
| 20260509204549 | 0 | 0 | 0.0 | 0.0 | 0.00 | 0.00 | 0.00 | 100 | |
| 20260509203031 | 71 | 11 | 3.0 | 8.0 | 0.00 | 0.00 | 0.00 | 48 | 1020.7 |
| 20260509201530 | 71 | 15 | 4.0 | 8.0 | 0.00 | 0.00 | 0.00 | 48 | 1021.0 |
| 20260509200106 | 71 | 23 | 3.0 | 10.0 | 0.00 | 0.00 | 0.00 | 49 | 1021.2 |
| 20260509194529 | 71 | 16 | 3.0 | 8.0 | 0.00 | 0.00 | 0.00 | 48 | 1021.5 |
| 20260509193031 | 71 | 11 | 3.0 | 7.0 | 0.00 | 0.00 | 0.00 | 47 | 1021.6 |
| 20260509191529 | 70 | 4 | 3.0 | 7.0 | 0.00 | 0.00 | 0.00 | 47 | 1021.8 |
| 20260509190030 | 70 | 35 | 2.0 | 8.0 | 0.00 | 0.00 | 0.00 | 47 | 1021.9 |
| 20260509184603 | 70 | 48 | 3.0 | 7.0 | 0.00 | 0.00 | 0.00 | 46 | 1022.1 |
| 20260509183031 | 70 | 47 | 4.0 | 8.0 | 0.00 | 0.00 | 0.00 | 45 | 1022.2 |
| 20260509181531 | 68 | 12 | 2.0 | 5.0 | 0.00 | 0.00 | 0.00 | 46 | 1022.3 |
| 20260509174557 | 68 | 359 | 3.0 | 9.0 | 0.00 | 0.00 | 0.00 | 44 | 1022.3 |
| 20260509173031 | 67 | 15 | 2.0 | 7.0 | 0.00 | 0.00 | 0.00 | 45 | 1022.3 |
| 20260509171529 | 66 | 341 | 2.0 | 6.0 | 0.00 | 0.00 | 0.00 | 46 | 1022.4 |
| 20260509170032 | 66 | 345 | 1.0 | 6.0 | 0.00 | 0.00 | 0.00 | 46 | 1022.6 |
| 20260509163031 | 64 | 286 | 0.0 | 3.0 | 0.00 | 0.00 | 0.00 | 49 | 1022.7 |
| 20260509161646 | 63 | 349 | 1.0 | 3.0 | 0.00 | 0.00 | 0.00 | 51 | 1022.9 |
| 20260509160113 | 62 | 6 | 0.0 | 4.0 | 0.00 | 0.00 | 0.00 | 53 | 1022.9 |
| 20260509153030 | 59 | 294 | 0.0 | 2.0 | 0.00 | 0.00 | 0.00 | 57 | 1023.1 |
| 20260509151530 | 58 | 298 | 2.0 | 3.0 | 0.00 | 0.00 | 0.00 | 60 | 1023.2 |
| 20260509150030 | 57 | 21 | 0.0 | 3.0 | 0.00 | 0.00 | 0.00 | 65 | 1023.1 |
| 20260509144531 | 55 | 67 | 0.0 | 0.0 | 0.00 | 0.00 | 0.00 | 73 | 1023.2 |
| 20260509143031 | 52 | 105 | 0.0 | 1.0 | 0.00 | 0.00 | 0.00 | 81 | 1023.3 |
| 20260509141646 | 48 | 135 | 0.0 | 0.0 | 0.00 | 0.00 | 0.00 | 87 | 1023.2 |